{"data":{"norad_id":69359,"epoch":"2026-09-20T03:39:49.392000Z","epoch_age_seconds":58942,"freshness":"FRESH","line1":"1 69359U 26123G   26263.15265500  .00013692  00000+0  41555-3 0  9992","line2":"2 69359  53.1582 143.5828 0001119  83.7889 276.3240 15.34406685 16816","mean_motion":15.34406685,"eccentricity":0.0001119,"inclination_deg":53.1582,"raan_deg":143.5828,"arg_perigee_deg":83.7889,"mean_anomaly_deg":276.324,"bstar":0.00041555,"rev_number":1681,"period_min":93.847349211725,"perigee_km":461.91788325092,"apogee_km":463.44885884996,"semimajor_km":6840.8203710504,"source":"CELESTRAK","updated_at":"2026-09-20T09:00:44.165435Z"}}